TIME,DELAY(SENSOR),PRES,T(CTD),SAL,OXYGEN,RAWTEMP,T(OPTODE),TCPHASE,TURBIDITY,TURBIDITY_GAIN,FLUOR,BETA,CDOM,ED411.5,ED443.8,ED489.6,PAR,COMP,TILT,TILTY(TILT),CHECK
1340583900,6468,145.5500030517578000,6.1856999397277830,34.8325996398925800,329.6951904296875000,724.7581176757812000,6.1602249145507810,34.0975303649902340,16,3,50,108,64,2147239258,2147558436,2147571085,2147360630,618,0,-12,62075
1340583961,6465,142.6900024414062500,6.1922001838684080,34.8328018188476560,329.9144897460937500,724.5546875000000000,6.1672382354736330,34.0860900878906250,16,3,50,109,63,2147240950,2147555505,2147571610,2147361056,3559,0,-12,12485
1340584024,6504,139.7200012207031200,6.2017998695373535,34.8278007507324200,330.0620117187500000,724.1563110351562000,6.1809730529785160,34.0731506347656250,16,3,50,109,64,2147238632,2147556511,2147569764,2147360036,2933,0,-12,21280
1340584085,6468,136.8200073242187500,6.2090997695922850,34.8283996582031250,330.0997924804687500,724.0578002929688000,6.1843638420104980,34.0698814392089840,16,3,50,110,64,2147239103,2147554601,2147568027,2147359487,2324,0,-12,37392
1340584148,6504,133.8399963378906200,6.2077999114990230,34.8278999328613300,330.2752990722656000,724.0537109375000000,6.1845049858093260,34.0634002685546900,16,3,50,110,64,2147235807,2147558856,2147567606,2147356058,1910,0,-12,25432
1340584209,6467,130.9799957275390600,6.2234001159667970,34.8241996765136700,330.2507019042969000,723.6624755859375000,6.1979899406433105,34.0569190979003900,16,3,50,110,64,2147235953,2147558106,2147571880,2147362367,1346,0,-12,19831
1340584273,6467,128.0399932861328000,6.2376999855041500,34.8194007873535160,330.2130126953125000,723.2166137695312000,6.2133541107177730,34.0500717163085940,16,3,50,107,64,2147242134,2147557681,2147569905,2147359834,565,0,-12,51532
1340584334,6504,125.3300018310546900,6.2479000091552730,34.8143997192382800,330.2124938964844000,722.9426879882812000,6.2227897644042970,34.0448493957519500,16,3,50,108,64,2147239707,2147557444,2147569892,2147362056,3407,0,-12,871
1340584397,6503,122.5599975585937500,6.2518000602722170,34.8133010864257800,330.3110961914062500,722.7885742187500000,6.2280979156494140,34.0384216308593750,16,3,50,108,63,2147238189,2147554047,2147571149,2147362331,2748,0,-12,14314
1340584458,6503,119.8799972534179700,6.2638998031616210,34.8074989318847660,330.8965148925781000,722.4871826171875000,6.2384829521179200,34.0119781494140600,16,3,50,108,64,2147240008,2147556383,2147570207,2147360914,2179,0,-12,64416
1340584521,6503,117.0699996948242200,6.2761001586914060,34.8055000305175800,331.1239013671875000,722.1373291015625000,6.2505340576171875,33.9973411560058600,16,3,52,110,63,2147237508,2147557901,2147568936,2147361741,1694,0,-12,50102
1340584582,6504,114.3399963378906200,6.2870998382568360,34.8022994995117200,331.6459960937500000,721.7996215820312000,6.2621650695800780,33.9723396301269500,16,3,51,112,63,2147237009,2147554188,2147568667,2147358641,1317,0,-12,62695
1340584645,6468,111.5199966430664000,6.2986001968383790,34.8011016845703100,332.0686950683594000,721.4658813476562000,6.2736511230468750,33.9511718750000000,16,3,50,109,64,2147238582,2147556799,2147567958,2147358678,893,0,-12,54213
1340584706,6503,108.8199996948242200,6.3060002326965330,34.7971992492675800,332.6359863281250000,721.2263183593750000,6.2819042205810550,33.9262199401855500,16,3,51,109,63,2147235665,2147556799,2147573462,2147361796,3487,0,-12,55635
1340584769,6504,106.0500030517578100,6.3203001022338870,34.7930984497070300,333.4334106445312500,720.8535766601562000,6.2947311401367190,33.8913307189941400,35,3,52,110,64,2147237718,2147555528,2147570532,2147358774,2596,0,-12,10184
1340584830,6502,103.4400024414062500,6.3440999984741210,34.7885017395019500,334.1834106445312500,720.2026977539062000,6.3171348571777340,33.8523902893066400,16,3,51,112,64,2147235186,2147556237,2147569233,2147359903,2355,0,-12,24554
1340584894,6504,100.7300033569336000,6.3491001129150390,34.7877006530761700,334.8945007324219000,719.9932250976562000,6.3243432044982910,33.8235206604003900,16,3,52,108,64,2147239834,2147556232,2147566668,2147360867,1901,0,-12,42933
1340584955,6504,98.2099990844726600,6.3758997917175290,34.7837982177734400,335.4354858398437500,719.3046875000000000,6.3480300903320310,33.7917289733886700,16,3,52,109,64,2147236671,2147555656,2147570810,2147359963,1667,0,-12,19105
1340585018,6465,95.6600036621093800,6.3789000511169430,34.7834014892578100,336.1773071289062500,719.1384277343750000,6.3537521362304690,33.7629013061523440,16,3,52,111,64,2147233933,2147556333,2147568987,2147360890,1219,0,-12,34355
1340585079,6466,93.1699981689453100,6.3850002288818360,34.7823982238769500,336.1784973144531000,718.9102783203125000,6.3615970611572270,33.7585716247558600,16,3,52,111,63,2147236913,2147556091,2147570175,2147359880,896,0,-12,45725
1340585142,6467,90.6100006103515600,6.4060001373291020,34.7804985046386700,336.0054931640625000,718.3668823242188000,6.3802847862243650,33.7544517517089840,17,3,54,113,63,2147235752,2147555185,2147571423,2147362783,148,0,-12,57763
1340585203,6504,88.1800003051757800,6.4218001365661620,34.7779998779296900,336.4891052246094000,718.0938110351562000,6.3896770477294920,33.7324218750000000,16,3,57,114,64,2147238427,2147556608,2147569965,2147358788,2780,0,-12,45049
1340585266,6504,85.6699981689453100,6.4312000274658200,34.7753982543945300,335.5809020996094000,717.6104125976562000,6.4062981605529785,33.7550811767578100,16,3,56,112,64,2147238212,2147555564,2147570212,2147360361,2750,0,-12,32885
1340585327,6504,83.2600021362304700,6.4650998115539550,34.7750015258789060,334.7947998046875000,716.7244262695312000,6.4367489814758300,33.7660903930664060,16,3,56,117,63,2147238171,2147555652,2147571839,2147359556,2492,0,-12,31916
1340585417,6504,78.9199981689453100,6.4850997924804690,34.7739982604980500,335.1658020019531000,716.0150756835938000,6.4611210823059080,33.7395896911621100,16,3,61,118,65,2147238248,2147556246,2147570317,2147360479,1849,0,-12,32284
1340585478,6468,75.0199966430664000,6.5018000602722170,34.7717018127441400,334.4719848632812500,715.1770019531250000,6.4899101257324220,33.7484703063964840,16,3,64,122,64,2147240657,2147555135,2147571117,2147361696,1209,0,-12,55732
1340585542,6466,70.9800033569336000,6.5510997772216800,34.7673988342285160,334.2695922851562500,714.1445922851562000,6.5253558158874510,33.7364196777343750,16,3,67,122,64,2147236159,2147554888,2147570915,2147359203,607,0,-12,58607
1340585603,6503,67.2200012207031200,6.5738000869750980,34.7662010192871100,334.7890930175781000,713.4769287109375000,6.5482769012451170,33.7057304382324200,16,3,70,124,65,2147238938,2147556886,2147572813,2147361773,2956,0,-12,32614
1340585690,6504,62.9799995422363300,6.6286997795104980,34.7625999450683600,335.4177856445312500,712.0050048828125000,6.5987777709960940,33.6565208435058600,16,3,76,126,64,2147237508,2147554262,2147571789,2147362207,1809,0,-12,22492
1340585751,6503,61.0000000000000000,6.6391000747680660,34.7617988586425800,335.2322998046875000,711.6923828125000000,6.6094970703125000,33.6570701599121100,16,3,75,131,64,2147236488,2147556918,2147569101,2147359931,1424,0,-12,20799
1340585838,6467,57.4300003051757800,6.6666002273559570,34.7605018615722660,334.7648925781250000,710.7769775390625000,6.6408839225769040,33.6563911437988300,15,3,74,134,65,2147236452,2147555267,2147569366,2147359249,663,0,-12,48960
1340585899,6465,53.8800010681152340,6.7150001525878910,34.7585983276367200,334.6636962890625000,708.9716186523438000,6.7027611732482910,33.6265983581543000,16,3,78,138,64,2147236826,2147558619,2147569137,2147362541,3301,0,-11,13745
1340585962,6503,50.2099990844726560,6.8660001754760740,34.7540016174316400,336.1799011230469000,705.1649780273438000,6.8330712318420410,33.5035514831543000,16,3,86,144,64,2147237549,2147557453,2147571725,2147361481,2497,0,-12,8716
1340586023,6465,46.7400016784668000,6.9553999900817870,34.7517013549804700,336.8486938476562500,702.5814208984375000,6.9214019775390625,33.4330711364746100,18,3,92,155,65,2147231204,2147554029,2147569558,2147359313,2330,0,-12,24765
1340586086,6467,43.3199996948242200,6.9902000427246090,34.7522010803222660,337.3017883300781000,701.2564086914062000,6.9666671752929690,33.3933410644531250,16,3,96,154,64,2147235195,2147553549,2147571432,2147356717,2004,0,-12,46309
1340586147,6505,40.1500015258789060,7.1097002029418945,34.7494010925293000,337.6066894531250000,698.3442993164062000,7.0660719871521000,33.3297309875488300,18,3,108,159,65,2147233476,2147555066,2147571332,2147357060,1089,0,-12,25931
1340586211,6470,36.9799995422363300,7.6245999336242680,34.6992988586425800,336.1866149902344000,683.8544921875000000,7.5590209960937500,33.1183509826660160,25,3,145,202,64,2147236031,2147554682,2147572396,2147359871,860,0,-12,64477
1340586272,6469,34.5499992370605500,7.8439998626708980,34.7384986877441400,337.5645141601562500,677.4016723632812000,7.7776761054992680,32.9564399719238300,26,3,157,197,64,2147234678,2147553083,2147570436,2147357709,182,0,-12,3958
1340586335,6466,32.3400001525878900,7.8987002372741700,34.7410011291503900,338.8778991699219000,674.3098144531250000,7.8822569847106930,32.8570289611816400,27,3,176,218,64,2147232461,2147556827,2147570614,2147359268,3252,0,-12,1547
1340586396,6467,30.4400005340576170,8.1287002563476560,34.7375984191894500,339.0683898925781000,668.4312744140625000,8.0807571411132810,32.7479896545410160,32,3,214,236,66,2147231177,2147554682,2147570851,2147358825,3139,0,-12,47834
1340586486,6471,27.4500007629394530,8.6077003479003900,34.7294006347656250,337.9826965332031000,653.0343017578125000,8.5986537933349610,32.5192184448242200,46,3,334,350,66,2147230788,2147556466,2147570056,2147358920,2918,0,-11,9453
1340586547,6472,25.0900001525878900,9.3022003173828120,34.7230987548828100,339.2149963378906000,635.0045776367188000,9.2014961242675780,32.1737289428710940,92,3,1326,582,66,2147228617,2147554660,2147574111,2147357101,1489,0,-12,54263
1340586637,6473,21.4400005340576170,9.8957996368408200,34.7271995544433600,341.8587036132812500,608.5335083007812000,10.0798597335815430,31.6514396667480470,141,3,2362,904,68,2147227976,2147556319,2147574134,2147358239,770,0,-12,64638
1340586698,6506,18.4699993133544920,11.2172002792358400,34.6577987670898440,344.4620971679687500,577.9241943359375000,11.0861997604370120,31.0820808410644530,117,3,1101,562,67,2147229883,2147552072,2147576068,2147356561,3506,0,-12,47498
1340586761,6468,16.7399997711181640,11.5279998779296880,34.7232017517089840,345.8044128417969000,566.8153076171875000,11.4490900039672850,30.8670501708984380,83,3,628,440,68,2147226307,2147551446,2147570600,2147353900,249,0,-12,62771
1340586822,6469,15.1199998855590820,11.7593002319335940,34.7285003662109400,344.3656005859375000,558.6541748046875000,11.7149400711059570,30.7891407012939450,86,3,559,411,67,2147222852,2147550545,2147572685,2147355455,299,0,-10,33015
1340586902,6469,12.7500000000000000,12.0838003158569340,34.7265014648437500,342.6376037597656000,549.3278198242188000,12.0179901123046880,30.7039909362792970,74,3,518,431,68,2147218002,2147548817,2147572681,2147352648,2239,0,-12,26592
1340586975,6505,10.0200004577636720,12.2658996582031250,34.7246017456054700,342.1120910644531000,541.9796142578125000,12.2561998367309570,30.6107597351074220,74,3,571,464,66,2147222824,2147544689,2147571039,2147352128,1811,-2,-5,9999
1340587055,6471,6.1999998092651370,12.6282997131347660,34.7310981750488300,339.4307861328125000,529.3402709960938000,12.6648302078247070,30.5100193023681640,91,3,540,469,65,2147220649,2147547551,2147573407,2147350153,1519,-2,-23,1163
1340587118,6470,2.9700000286102295,12.9081001281738280,34.7291984558105500,336.1087036132812500,521.6907958984375000,12.9114704132080080,30.5062503814697270,106,3,501,409,64,2147216927,2147548977,2147572484,2147351592,2097,7,-13,23824
1340587168,6470,1.5099999904632568,0.0000000000000000,0.0000000000000000,335.4523010253906000,521.4605712890625000,12.9188899993896480,30.5244693756103500,101,3,526,428,64,2147214724,2147547021,2147575497,2147349618,2908,-4,-20,33038
1340587226,6468,19.0000000000000000,0.0000000000000000,0.0000000000000000,334.2998046875000000,521.4575805664062000,12.9189901351928710,30.5624504089355470,82,3,528,437,64,2147214271,2147547931,2147572630,2147351313,2999,-16,-10,3830
